Location: Aufkirchen
(47.9603°N, 11.3653°E)
Time: 17:06:15
(UTC+01:00)

Transit 2A - Pass Details

Date: 30 November 2020
Orbit: 599 x 960 km, 66.7° (Epoch: 26 January)

Event Time Altitude Azimuth Distance (km) Brightness Sun altitude
Rises 15:50:37 0° 166° (SSE) 3,625 9.8 3.7°
Reaches altitude 10° 15:53:54 10° 150° (SSE) 2,672 8.9 3.3°
Maximum altitude 15:58:12 20° 106° (ESE) 2,030 7.9 2.7°
Drops below altitude 10° 16:02:23 10° 62° (ENE) 2,592 8.1 2.2°
Sets 16:05:29 0° 46° (NE) 3,482 8.7 1.7°
